Location: Ajisawe
(8.4333°N, 4.3833°E)
Time: 12:21:10
(UTC+00:00)

SR - Pass Details

Date: 20 April 2021
Orbit: 573 x 882 km, 66.7° (Epoch: 15 May)

Event Time Altitude Azimuth Distance (km) Brightness Sun altitude
Rises 04:42:05 0° 164° (SSE) 3,061 ? -12.6°
Reaches altitude 10° 04:45:15 10° 142° (SE) 2,210 ? -11.9°
Maximum altitude 04:48:13 16° 106° (ESE) 1,912 ? -11.2°
Drops below altitude 10° 04:51:18 10° 70° (ENE) 2,330 ? -10.4°
Sets 04:54:45 0° 49° (NE) 3,322 ? -9.6°
